Regional Weather Roundup
Issued by NWS Sioux Falls, SD

Home | Current Version | Previous Version | Text Only | Print | Product List | Glossary On
Versions: 1 2 3 4 5 6 7 8 9 10 11 12 13 14 15 16 17 18 19 20 21 22 23 24 25 26 27 28 29 30 31 32 33 34 35 36 37 38 39 40 41 42 43 44 45 46 47 48 49 50
000
ASUS43 KFSD 050310
RWRFSD

WEATHER ROUNDUP FOR SE SOUTH DAKOTA/SW MINNESOTA/NW IOWA
NATIONAL WEATHER SERVICE SIOUX FALLS SD
1000 PM CDT FRI SEP 04 2015

NOTE: "FAIR" INDICATES FEW OR NO CLOUDS BELOW 12,000 FEET WITH NO
SIGNIFICANT WEATHER AND OR OBSTRUCTIONS TO VISIBILITY.


SDZ038>040-050-052>070-050400-
SOUTHEAST SOUTH DAKOTA

CITY           SKY/WX    TMP DP  RH WIND       PRES   REMARKS
BROOKINGS      MOCLDY    77  70  78 SE16G22   29.89S
CHAMBERLAIN    PTCLDY    75  69  81 SE7       29.78R
HURON          CLOUDY    78  72  81 SE12      29.79R
MADISON        MOCLDY    75  75 100 SE10G18   29.88R
MITCHELL       MOCLDY    80  73  79 SE12      29.80R
SIOUX FALLS    CLEAR     78  71  79 SE13      29.86R
WINNER         FAIR      81  63  54 S8        29.79R
YANKTON        CLEAR     79  72  78 SE10      29.82R
$$

MNZ071-072-080-081-089-090-097-098-050400-
SOUTHWEST MINNESOTA

CITY           SKY/WX    TMP DP  RH WIND       PRES   REMARKS
FAIRMONT       CLOUDY    77  68  73 SE9       29.94S
JACKSON        MOCLDY    77  72  83 SE10      29.95S
LUVERNE        PTCLDY    77  72  83 SE8       29.89S
MARSHALL       CLEAR     75  68  78 S12       29.90S
MONTEVIDEO     CLEAR     73  70  88 S9        29.88S
PIPESTONE      CLOUDY    75  72  88 S9G18     29.90S
REDWOOD FALLS  PTCLDY    75  70  84 S14       29.89S
TRACY          CLEAR     75  72  92 S9        29.90S
WINDOM         PTCLDY    75  72  88 SE8       29.93S
WORTHINGTON    CLEAR     73  70  88 SE9       29.92S
$$

IAZ001>003-012>014-020>022-031-032-NEZ013-014-SDZ071-050400-
NORTHWEST IOWA

CITY           SKY/WX    TMP DP  RH WIND       PRES   REMARKS
CHEROKEE       PTCLDY    77  71  83 SE12G17   29.92R
DENISON        MOCLDY    77  70  78 SE10G17   29.91S
ESTHERVILLE    MOCLDY    76  71  85 S12       29.94S
LE MARS        PTCLDY    77  72  83 SE10      29.88S
ORANGE CITY    PTCLDY    77  72  83 SE8G17    29.90R
SHELDON        PTCLDY    77  70  78 SE14G20   29.89S
SIOUX CITY     PTCLDY    77  70  79 SE10      29.87R
SPENCER        PTCLDY    78  71  79 SE12      29.93F HAZE
STORM LAKE     MOCLDY    75  72  88 SE8       29.96R
$$

ABBREVIATIONS USED IN REMARKS
   TC - TEMPERATURE IN CELSIUS
  WCI - WIND CHILL INDEX
   HX - HEAT INDEX
  VSB - VISIBILITY



USA.gov is the U.S. government's official web portal to all federal, state and local government web resources and services.